Home > Time Zones > World Clock > Weather > Italy > Milan > Past weeks

Flag for Italy Weather past 2 weeks in Milan, Italy

Now
64 °F

Drizzle. Fog.


Feels Like: 64 °F
Forecast: 62 / 78 °F
Wind: 1 mph from North

Location: Milan / Linate

Current Time: Sep 20, 2014 at 4:28:45 AM

Latest Report: Sep 20, 2014 at 3:50 AM


Visibility: 2 mi

Pressure: 30.07 "Hg

Humidity: 100%

Dew point: 64 °F

Location of MilanLocation

Historic Weather in Milan — Graph

°F

Milan temperature yesterday

Maximum temperature yesterday: 68 °F (at 9:50 AM)
Minimum temperature yesterday: 64 °F (at 2:20 AM)
Average temperature yesterday: 66 °F

Past Weeks' High & Low Weather Summary

 TemperatureHumidityPressure
High84 °F (Sep 8, 3:50 PM)100% (Sep 5, 6:50 AM)30.12 "Hg (Sep 5, 6:50 AM)
Low55 °F (Sep 13, 6:20 AM)40% (Sep 6, 3:50 PM)29.77 "Hg (Sep 11, 4:20 PM)
Average69 °F74%29.96 "Hg
* Reported Sep 5 2:20 AM — Sep 20 2:50 AM, Milan, Weather by CustomWeather, © 2014

Note: Actual official high and low records may vary slightly from our data, if they occured in-between our weather recording intervals... More about our weather records

Advertising

Milan weather history for previous 24 hours

 ConditionsComfort  
Time TempWeatherWind HumidityBarometerVisibility
2:50 AM
Sep 20
64 °FFog.No wind100%30.09 "Hg2 mi
2:20 AM64 °FFog.3 mph100%30.09 "Hg2 mi
1:50 AM64 °FFog.2 mph100%30.09 "Hg2 mi
1:20 AM64 °FFog.3 mph100%30.09 "Hg3 mi
12:50 AM64 °FPassing clouds.2 mph94%30.12 "Hg5 mi
12:20 AM64 °FPassing clouds.3 mph94%30.09 "Hg5 mi
11:50 PM
Sep 19
64 °FPassing clouds.2 mph94%30.12 "Hg4 mi
10:50 PM64 °FFog.5 mph94%30.12 "Hg2 mi
10:20 PM64 °FFog.5 mph94%30.12 "Hg2 mi
9:50 PM66 °FFog.3 mph88%30.12 "Hg2 mi
9:20 PM64 °FFog.5 mph94%30.12 "Hg2 mi
8:50 PM66 °FFog.5 mph88%30.09 "Hg2 mi
8:20 PM64 °FFog.2 mph94%30.09 "Hg2 mi
7:50 PM66 °FFog.5 mph88%30.09 "Hg2 mi
7:20 PM66 °FLight rain. Fog.5 mph88%30.09 "Hg2 mi
6:50 PM66 °FLight rain. Fog.6 mph88%30.07 "Hg2 mi
6:20 PM66 °FFog.8 mph88%30.07 "Hg3 mi
5:50 PM66 °FFog.7 mph83%30.07 "Hg3 mi
5:20 PM66 °FFog.7 mph88%30.07 "Hg3 mi
4:50 PM66 °FFog.6 mph88%30.07 "Hg2 mi
4:20 PM68 °FFog.3 mph83%30.07 "Hg3 mi
3:50 PM66 °FFog.8 mph88%30.07 "Hg3 mi
3:20 PM68 °FLight rain. Fog.3 mph83%30.09 "Hg3 mi
2:50 PM68 °FFog.3 mph83%30.07 "Hg3 mi
2:20 PM68 °FFog.2 mph83%30.09 "Hg3 mi
1:50 PM68 °FFog.2 mph83%30.09 "Hg2 mi
1:20 PM68 °FFog.5 mph83%30.09 "Hg2 mi
12:50 PM68 °FFog.5 mph83%30.09 "Hg2 mi
12:20 PM66 °FPartly sunny.3 mph88%30.09 "Hg5 mi
11:50 AM68 °FPartly sunny.5 mph83%30.09 "HgN/A
11:20 AM68 °FPartly sunny.3 mph78%30.12 "HgN/A
10:50 AM68 °FPartly sunny.5 mph78%30.09 "HgN/A
10:20 AM66 °FPartly sunny.3 mph83%30.09 "HgN/A
9:50 AM68 °FPartly sunny.3 mph78%30.09 "HgN/A
9:20 AM66 °FPartly sunny.8 mph83%30.07 "HgN/A
8:50 AM66 °FPartly sunny.6 mph83%30.09 "HgN/A
8:20 AM66 °FPartly sunny.2 mph83%30.09 "HgN/A
7:50 AM66 °FPassing clouds.2 mph83%30.09 "HgN/A
7:20 AM64 °FOvercast.3 mph88%30.09 "HgN/A
6:50 AM64 °FOvercast.2 mph88%30.09 "HgN/A
6:20 AM64 °FPassing clouds.2 mph88%30.07 "HgN/A
5:50 AM64 °FPassing clouds.3 mph88%30.07 "HgN/A
5:20 AM64 °FPassing clouds.2 mph88%30.07 "HgN/A
4:50 AM64 °FPassing clouds.3 mph83%30.07 "HgN/A
4:20 AM64 °FOvercast.3 mph88%30.07 "HgN/A
Weather by CustomWeather, © 2014

See weather overviewHow to use our weather pages